Flag for U.S.A. Weather past 2 weeks in Grand Junction, Colorado, U.S.A.

Now
69 °F

Sunny.


Feels Like: 69 °F
Forecast: 59 / 91 °F
Wind: 10 mph from Southeast

Location: Walker Field

Current Time: Aug 29, 2015 at 9:30:47 AM

Latest Report: Aug 29, 2015 at 8:53 AM


Visibility: 10 mi

Pressure: 30.05 "Hg (25.54 "Hg at 1398m altitude)

Humidity: 45%

Dew point: 47 °F

Location of Grand JunctionLocation

Historic Weather in Grand Junction — Graph

°F

Grand Junction temperature yesterday

Maximum temperature yesterday: 87 °F (at 4:53 PM)
Minimum temperature yesterday: 56 °F (at 6:53 AM)
Average temperature yesterday: 71 °F

Past Weeks' High & Low Weather Summary

 TemperatureHumidityPressure
High96 °F (Aug 14, 4:53 PM)100% (Aug 27, 2:53 AM)30.20 "Hg (Aug 27, 2:53 AM)
Low54 °F (Aug 18, 5:53 AM)8% (Aug 18, 2:53 PM)29.60 "Hg (Aug 17, 5:53 PM)
Average76 °F33%29.89 "Hg
* Reported Aug 14 7:53 AM — Aug 29 7:53 AM, Grand Junction, Weather by CustomWeather, © 2015

Note: Actual official high and low records may vary slightly from our data, if they occured in-between our weather recording intervals... More about our weather records

Advertising

Grand Junction weather history for previous 24 hours

 ConditionsComfort  
Time TempWeatherWind HumidityBarometerVisibility
7:53 AM
Sat, Aug 29
62 °FSunny.9 mph56%30.04 "Hg10 mi
6:53 AM60 °FClear.7 mph58%30.01 "Hg10 mi
5:53 AM57 °FClear.3 mph64%30.01 "Hg10 mi
4:53 AM59 °FClear.10 mph60%29.99 "Hg10 mi
3:53 AM61 °FClear.10 mph56%29.98 "Hg10 mi
2:53 AM61 °FClear.7 mph56%29.98 "Hg10 mi
12:53 AM65 °FClear.9 mph49%29.98 "Hg10 mi
11:53 PM
Fri, Aug 28
66 °FClear.8 mph49%29.98 "Hg10 mi
10:53 PM69 °FClear.3 mph42%29.98 "Hg10 mi
9:53 PM72 °FClear.6 mph34%29.98 "Hg10 mi
8:53 PM73 °FClear.8 mph37%29.96 "Hg10 mi
7:53 PM81 °FSunny.No wind26%29.94 "Hg10 mi
6:53 PM85 °FSunny.5 mph20%29.93 "Hg10 mi
5:53 PM86 °FSunny.10 mph20%29.93 "Hg10 mi
4:53 PM87 °FSunny.10 mph20%29.94 "Hg10 mi
3:53 PM86 °FSunny.N/A21%29.96 "Hg10 mi
2:53 PM85 °FSunny.8 mph25%29.99 "Hg10 mi
1:53 PM83 °FSunny.9 mph32%30.01 "Hg10 mi
12:53 PM78 °FSunny.10 mph39%30.07 "Hg10 mi
11:53 AM75 °FSunny.12 mph45%30.10 "Hg10 mi
10:53 AM71 °FSunny.12 mph51%30.13 "Hg10 mi
9:53 AM68 °FSunny.9 mph59%30.12 "Hg10 mi
Weather by CustomWeather, © 2015

See weather overviewHow to use our weather pages